Weather History for Olean, NY

Change the Weather History Date:

Thursday, January 17, 2013

  Actual Average (KBFD) Record (KBFD)
Temperature  
Mean Temperature 22 °F 21 °F  
Max Temperature 28 °F 29 °F 54 °F (1990)
Min Temperature 17 °F 13 °F -27 °F (1982)
Degree Days  
Heating Degree Days 42 38  
Month to date heating degree days 646  
Since 1 July heating degree days 3702  
Cooling Degree Days 0 0  
Month to date cooling degree days 0  
Year to date cooling degree days 0  
Moisture  
Dew Point 22 °F    
Average Humidity 85    
Maximum Humidity 93    
Minimum Humidity 74    
Precipitation  
Precipitation 0.00 in 0.10 in 1.09 in (1978)
Month to date precipitation 1.86  
Year to date precipitation 1.86  
Sea Level Pressure  
Sea Level Pressure 29.96 in    
Wind  
Wind Speed 6 mph (WNW)    
Max Wind Speed 13 mph    
Max Gust Speed 24 mph    
Visibility 8 miles    
Events Snow    
T = Trace of Precipitation, MM = Missing Value Source: NWS Daily Summary

Daily Weather History Graph

Daily Weather History Graph

Search for Another Location

Airport:

Trip Planner

Search our weather history database for the weather conditions in past years. The results will help you decide how hot, cold, wet, or windy it might be!

Date:

Astronomy

Jan. 17, 2013 Rise Set
Actual Time 7:38 AM EST 5:09 PM EST
Civil Twilight 7:07 AM EST 5:40 PM EST
Nautical Twilight 6:33 AM EST 6:14 PM EST
Astronomical Twilight 5:59 AM EST 6:48 PM EST
Moon 10:36 AM EST (1/17) No Moon Set
Length of Visible Light 10h 32m
Length of Day
9h 30m
Waxing Crescent, 37% of the Moon is Illuminated
Jan 17
Waxing Crescent
Jan 18
First Quarter
Jan 26
Full
Feb 3
Last Quarter
Feb 10
New

Hourly Weather History & Observations

Time (EST) Temp. Windchill Dew Point Humidity Pressure Visibility Wind Dir Wind Speed Gust Speed Precip Events Conditions
12:15 AM 28.4 °F 22.2 °F 21.2 °F 74% 29.82 in 10.0 mi WSW 5.8 mph - N/A   Overcast
12:35 AM 28.4 °F 21.2 °F 21.2 °F 74% 29.82 in 10.0 mi West 6.9 mph 23.0 mph N/A   Overcast
12:55 AM 28.4 °F 19.1 °F 21.2 °F 74% 29.83 in 10.0 mi West 10.4 mph - N/A   Overcast
1:35 AM 28.4 °F 22.2 °F 21.2 °F 74% 29.85 in 10.0 mi West 5.8 mph 16.1 mph N/A   Overcast
1:55 AM 28.4 °F 19.7 °F 21.2 °F 74% 29.85 in 10.0 mi West 9.2 mph 17.3 mph N/A   Overcast
2:15 AM 28.4 °F 21.2 °F 21.2 °F 74% 29.86 in 10.0 mi West 6.9 mph 19.6 mph N/A   Overcast
2:35 AM 28.4 °F 20.4 °F 21.2 °F 74% 29.86 in 10.0 mi WSW 8.1 mph 16.1 mph N/A   Overcast
2:55 AM 28.4 °F 19.7 °F 23.0 °F 80% 29.87 in 10.0 mi West 9.2 mph - N/A   Overcast
3:15 AM 28.4 °F 24.6 °F 23.0 °F 80% 29.88 in 10.0 mi West 3.5 mph - N/A   Overcast
3:35 AM 28.4 °F 20.4 °F 24.8 °F 86% 29.88 in 7.0 mi West 8.1 mph 24.2 mph N/A   Overcast
3:55 AM 28.4 °F 20.4 °F 26.6 °F 93% 29.88 in 5.0 mi West 8.1 mph - N/A   Overcast
4:15 AM 28.4 °F 20.4 °F 26.6 °F 93% 29.88 in 4.0 mi West 8.1 mph 16.1 mph N/A   Overcast
4:35 AM 28.4 °F 19.7 °F 26.6 °F 93% 29.88 in 5.0 mi West 9.2 mph 17.3 mph N/A   Overcast
4:55 AM 28.4 °F 24.6 °F 26.6 °F 93% 29.89 in 5.0 mi West 3.5 mph - N/A   Overcast
5:15 AM 28.4 °F 21.2 °F 26.6 °F 93% 29.90 in 7.0 mi West 6.9 mph 17.3 mph N/A   Overcast
5:35 AM 28.4 °F 20.4 °F 26.6 °F 93% 29.90 in 10.0 mi West 8.1 mph - N/A   Overcast
5:55 AM 28.4 °F 19.1 °F 26.6 °F 93% 29.91 in 10.0 mi WNW 10.4 mph 18.4 mph N/A   Overcast
6:15 AM 28.4 °F 20.4 °F 26.6 °F 93% 29.91 in 10.0 mi West 8.1 mph 16.1 mph N/A   Overcast
6:35 AM 28.4 °F 19.1 °F 26.6 °F 93% 29.92 in 10.0 mi WNW 10.4 mph 19.6 mph N/A   Overcast
6:55 AM 28.4 °F 21.2 °F 24.8 °F 86% 29.93 in 10.0 mi WNW 6.9 mph - N/A   Overcast
7:15 AM 28.4 °F 19.7 °F 24.8 °F 86% 29.94 in 10.0 mi WNW 9.2 mph 16.1 mph N/A   Overcast
7:35 AM 28.4 °F 19.7 °F 24.8 °F 86% 29.94 in 10.0 mi West 9.2 mph - N/A   Overcast
7:55 AM 28.4 °F 23.3 °F 23.0 °F 80% 29.96 in 10.0 mi West 4.6 mph 18.4 mph N/A   Overcast
8:15 AM 28.4 °F 21.2 °F 24.8 °F 86% 29.97 in 10.0 mi West 6.9 mph - N/A   Overcast
8:35 AM 28.4 °F 21.2 °F 24.8 °F 86% 29.99 in 7.0 mi WNW 6.9 mph - N/A   Overcast
8:55 AM 28.4 °F 22.2 °F 24.8 °F 86% 29.98 in 7.0 mi WNW 5.8 mph - N/A   Overcast
9:15 AM 28.4 °F 24.6 °F 24.8 °F 86% 29.99 in 5.0 mi WNW 3.5 mph - N/A   Overcast
9:35 AM 28.4 °F 24.6 °F 24.8 °F 86% 30.00 in 7.0 mi West 3.5 mph - N/A   Overcast
9:55 AM 28.4 °F 18.0 °F 24.8 °F 86% 30.01 in 7.0 mi NW 12.7 mph 17.3 mph N/A   Overcast
10:15 AM 28.4 °F 22.2 °F 23.0 °F 80% 30.03 in 10.0 mi NW 5.8 mph 19.6 mph N/A   Overcast
10:35 AM 28.4 °F 21.2 °F 23.0 °F 80% 30.03 in 10.0 mi NW 6.9 mph - N/A   Overcast
10:55 AM 28.4 °F 23.3 °F 23.0 °F 80% 30.03 in 10.0 mi WNW 4.6 mph - N/A   Overcast
11:15 AM 28.4 °F 23.3 °F 23.0 °F 80% 30.03 in 10.0 mi WNW 4.6 mph - N/A   Overcast
11:35 AM 28.4 °F 24.6 °F 23.0 °F 80% 30.03 in 10.0 mi WNW 3.5 mph - N/A   Overcast
11:55 AM 28.4 °F 21.2 °F 23.0 °F 80% 30.02 in 10.0 mi WNW 6.9 mph - N/A   Overcast
12:15 PM 28.4 °F 22.2 °F 23.0 °F 80% 30.01 in 10.0 mi WNW 5.8 mph - N/A   Overcast
12:35 PM 28.4 °F 23.3 °F 21.2 °F 74% 30.00 in 10.0 mi WNW 4.6 mph - N/A   Overcast
12:55 PM 28.4 °F 23.3 °F 21.2 °F 74% 29.99 in 10.0 mi WNW 4.6 mph - N/A   Overcast
1:15 PM 28.4 °F 22.2 °F 21.2 °F 74% 29.99 in 10.0 mi WNW 5.8 mph - N/A   Overcast
1:35 PM 28.4 °F 23.3 °F 21.2 °F 74% 29.98 in 10.0 mi WNW 4.6 mph - N/A   Overcast
1:55 PM 28.4 °F 23.3 °F 21.2 °F 74% 29.98 in 10.0 mi NW 4.6 mph - N/A   Overcast
2:15 PM 26.6 °F 20.0 °F 21.2 °F 80% 29.97 in 10.0 mi NNW 5.8 mph - N/A   Overcast
2:35 PM 26.6 °F 22.6 °F 21.2 °F 80% 29.97 in 10.0 mi NW 3.5 mph - N/A   Overcast
2:55 PM 26.6 °F 22.6 °F 21.2 °F 80% 29.97 in 10.0 mi WNW 3.5 mph - N/A   Overcast
3:15 PM 26.6 °F - 21.2 °F 80% 29.97 in 10.0 mi Calm Calm - N/A   Overcast
3:35 PM 26.6 °F - 21.2 °F 80% 29.97 in 7.0 mi Calm Calm - N/A Snow Light Snow
3:55 PM 26.6 °F 22.6 °F 21.2 °F 80% 29.99 in 7.0 mi East 3.5 mph - N/A Snow Light Snow
4:15 PM 23.0 °F 17.0 °F 21.2 °F 93% 29.99 in 2.0 mi ENE 4.6 mph - N/A Snow Light Snow
4:55 PM 21.2 °F 14.9 °F 19.4 °F 93% 30.00 in 1.5 mi ENE 4.6 mph - N/A Snow Light Snow
5:55 PM 21.2 °F 13.6 °F 19.4 °F 93% 30.01 in 5.0 mi East 5.8 mph - N/A Snow Light Snow
6:15 PM 19.4 °F 11.5 °F 17.6 °F 93% 30.02 in 7.0 mi ENE 5.8 mph - N/A Snow Light Snow
6:35 PM 19.4 °F 11.5 °F 17.6 °F 93% 30.03 in 7.0 mi ENE 5.8 mph - N/A Snow Light Snow
6:55 PM 19.4 °F 10.4 °F 17.6 °F 93% 30.02 in 7.0 mi ENE 6.9 mph - N/A Snow Light Snow
7:35 PM 17.6 °F 10.7 °F 15.8 °F 93% 30.03 in 5.0 mi ENE 4.6 mph - N/A Snow Light Snow
8:15 PM 17.6 °F 12.3 °F 15.8 °F 93% 30.01 in 10.0 mi East 3.5 mph - N/A Snow Light Snow
8:35 PM 17.6 °F - 14.0 °F 86% 30.03 in 7.0 mi Calm Calm - N/A Snow Light Snow
8:55 PM 17.6 °F - 15.8 °F 93% 30.02 in 7.0 mi Calm Calm - N/A Snow Light Snow
9:15 PM 17.6 °F - 15.8 °F 93% 30.00 in 10.0 mi Calm Calm - N/A   Overcast
9:55 PM 19.4 °F 12.8 °F 17.6 °F 93% 29.99 in 10.0 mi WSW 4.6 mph - N/A   Overcast
10:15 PM 21.2 °F - 19.4 °F 93% 29.96 in 10.0 mi Calm Calm - N/A   Overcast
10:35 PM 21.2 °F 14.9 °F 19.4 °F 93% 29.97 in 2.0 mi WNW 4.6 mph - N/A Snow Light Snow
10:55 PM 21.2 °F 9.5 °F 19.4 °F 93% 29.98 in 0.5 mi WNW 11.5 mph 16.1 mph N/A Snow Heavy Snow